Regional Weather Roundup
Issued by NWS

Home | Current Version | Previous Version | Graphics & Text | Print | Product List | Glossary Off
Versions: 1 2 3 4 5 6 7 8 9 10 11 12 13 14 15 16 17 18 19 20 21 22 23 24 25 26 27 28 29 30 31 32 33 34 35 36 37 38 39 40 41 42 43 44 45 46 47 48 49 50

000
ASUS43 KLSX 051610
RWRMO

WEATHER SUMMARY FOR MISSOURI
NATIONAL WEATHER SERVICE SPRINGFIELD MO
1000 AM CST FRI FEB 05 2016

NOTE: "FAIR" INDICATES FEW OR NO CLOUDS BELOW 12,000 FEET WITH NO
       SIGNIFICANT WEATHER AND/OR OBSTRUCTIONS TO VISIBILITY.
       CURRENT SKY AND/OR WEATHER CONDITIONS ARE NOT AVAILABLE FOR
       CHILLICOTHE AND FARMINGTON.

MOZ001>031-035>038-043-044-053-054-051700-
...NORTHERN AND WESTERN MISSOURI...

CITY           SKY/WX    TMP DP  RH WIND       PRES   REMARKS
KANSAS CTY INT CLOUDY    29  23  78 S8        30.41S WCI  21
KANSAS C DTWN  CLOUDY    31  21  66 SE7       30.44R WCI  24
LEE`S SUMMIT   CLOUDY    29  22  75 SE6       30.43S WCI  23
ST JOSEPH      PTSUNNY   28  23  81 S6        30.43S WCI  22
CHILLICOTHE      N/A     28  20  71 SE6       30.43F WCI  22
KIRKSVILLE     MOSUNNY   25  17  72 S3        30.44R

$$
MOZ066>068-077>081-088>096-101>105-051700-
...SOUTHWEST MISSOURI...

CITY           SKY/WX    TMP DP  RH WIND       PRES   REMARKS
SPRINGFIELD    MOSUNNY   39  19  44 VRB6      30.40R
JOPLIN         CLOUDY    41  19  41 SW8       30.42R

$$
MOZ032>034-039>042-045>050-055>058-069>072-051700-
...CENTRAL MISSOURI...

CITY           SKY/WX    TMP DP  RH WIND       PRES   REMARKS
COLUMBIA       MOSUNNY   30  20  66 CALM      30.44S
JEFFERSON CITY CLOUDY    31  22  69 CALM      30.46S
ROLLA          SUNNY     31  23  72 CALM      30.40S
SEDALIA        CLOUDY    30  21  69 E7        30.45R WCI  23
WHITEMAN AFB   CLOUDY    29  23  77 SE6       30.44R WCI  23
WARRENSBURG    CLOUDY    30  23  74 E6        30.45S WCI  24
OSAGE BEACH    SUNNY     32  21  64 CALM      30.44R

$$
MOZ051-052-059>065-051700-
...EAST CENTRAL MISSOURI...

CITY           SKY/WX    TMP DP  RH WIND       PRES   REMARKS
ST LOUIS INTL  CLOUDY    33  22  63 CALM      30.45R
SPIRIT OF STL  CLOUDY    32  23  69 CALM      30.44S
ST CHARLES     MOSUNNY   31  24  75 CALM      30.45R

$$
MOZ072>076-082>087-097>100-106>115-051700-
...SOUTH CENTRAL AND SOUTHEAST MISSOURI...

CITY           SKY/WX    TMP DP  RH WIND       PRES   REMARKS
CAPE GIRARDEAU SUNNY     36  25  64 W3        30.45S
FARMINGTON     SUNNY     34  22  61 CALM      30.43R
POPLAR BLUFF   CLOUDY    36  23  59 VRB3      30.45S
WEST PLAINS    SUNNY     39  17  41 W7        30.42S

$$



USA.gov is the U.S. government's official web portal to all federal, state and local government web resources and services.